Location: Choisy
(48.7685°N, 2.4187°E)
Time: 07:21:19
(UTC+00:00)

BlueWalker 3 - Pass Details

Date: 03 March 2024
Orbit: 485 x 495 km, 53.2° (Epoch: 24 April)

Event Time Altitude Azimuth Distance (km) Brightness Sun altitude
Rises 20:17:22 0° 287° (WNW) 2,558 6.8 -26.6°
Reaches altitude 10° 20:20:19 10° 263° (W) 1,670 5.3 -27.1°
Enters shadow 20:22:13 14° 232° (SW) 1,409 4.5 -27.4°
